TimePST,TemperatureF,Dew PointF,Humidity,Sea Level PressureIn,VisibilityMPH,Wind Direction,Wind SpeedMPH,Gust SpeedMPH,PrecipitationIn,Events,Conditions,WindDirDegrees,DateUTC
12:05 AM,-4.0,-9.4,78,30.17,10.0,Calm,Calm,-,N/A,,Overcast,0,2013-01-14 08:05:00
1:05 AM,-2.2,-9.4,71,30.18,10.0,SW,5.8,-,N/A,,Overcast,220,2013-01-14 09:05:00
1:25 AM,-2.2,-7.6,78,30.18,10.0,Calm,Calm,-,N/A,,Overcast,0,2013-01-14 09:25:00
1:45 AM,-4.0,-9.4,78,30.19,7.0,WSW,3.5,-,N/A,,Overcast,240,2013-01-14 09:45:00
2:05 AM,-4.0,-9.4,78,30.19,8.0,WSW,4.6,-,N/A,,Overcast,240,2013-01-14 10:05:00
2:25 AM,-4.0,-9.4,78,30.20,8.0,Calm,Calm,-,N/A,,Overcast,0,2013-01-14 10:25:00
2:45 AM,-4.0,-9.4,78,30.19,9.0,SSW,3.5,-,N/A,,Overcast,200,2013-01-14 10:45:00
3:05 AM,-4.0,-9.4,78,30.19,8.0,West,4.6,-,N/A,,Overcast,260,2013-01-14 11:05:00
3:45 AM,-2.2,-9.4,71,30.19,9.0,West,3.5,-,N/A,,Overcast,270,2013-01-14 11:45:00
4:05 AM,-2.2,-9.4,71,30.19,10.0,SW,3.5,-,N/A,,Overcast,220,2013-01-14 12:05:00
4:25 AM,-4.0,-9.4,78,30.19,10.0,Calm,Calm,-,N/A,,Overcast,0,2013-01-14 12:25:00
4:45 AM,-4.0,-9.4,78,30.19,10.0,Calm,Calm,-,N/A,,Overcast,0,2013-01-14 12:45:00
5:05 AM,-4.0,-9.4,78,30.20,8.0,Calm,Calm,-,N/A,,Overcast,0,2013-01-14 13:05:00
5:25 AM,-5.8,-11.2,77,30.20,10.0,SW,3.5,-,N/A,,Overcast,230,2013-01-14 13:25:00
5:45 AM,-7.6,-13.0,77,30.20,8.0,SW,4.6,-,N/A,,Overcast,230,2013-01-14 13:45:00
6:05 AM,-7.6,-13.0,77,30.21,7.0,SW,4.6,-,N/A,,Overcast,230,2013-01-14 14:05:00
6:25 AM,-7.6,-13.0,77,30.21,7.0,SW,4.6,-,N/A,,Overcast,230,2013-01-14 14:25:00
6:45 AM,-9.4,-14.8,77,30.22,8.0,SSW,4.6,-,N/A,,Overcast,210,2013-01-14 14:45:00
7:05 AM,-7.6,-13.0,77,30.23,8.0,SW,4.6,-,N/A,,Overcast,220,2013-01-14 15:05:00
7:25 AM,-7.6,-13.0,77,30.23,8.0,WSW,4.6,-,N/A,,Overcast,240,2013-01-14 15:25:00
7:45 AM,-4.0,-11.2,71,30.23,5.0,SW,4.6,-,N/A,,Overcast,230,2013-01-14 15:45:00
8:05 AM,-4.0,-11.2,71,30.24,4.0,SW,4.6,-,N/A,,Overcast,230,2013-01-14 16:05:00
8:25 AM,-2.2,-9.4,71,30.25,5.0,WSW,3.5,-,N/A,,Overcast,250,2013-01-14 16:25:00
8:45 AM,-2.2,-7.6,78,30.26,3.0,WSW,4.6,-,N/A,,Overcast,240,2013-01-14 16:45:00
9:05 AM,-0.4,-5.8,78,30.26,5.0,WSW,5.8,-,N/A,,Overcast,240,2013-01-14 17:05:00
9:25 AM,-0.4,-5.8,78,30.28,5.0,WSW,3.5,-,N/A,,Overcast,240,2013-01-14 17:25:00
9:45 AM,1.4,-4.0,78,30.28,4.0,SW,4.6,-,N/A,,Overcast,220,2013-01-14 17:45:00
10:05 AM,3.2,-4.0,72,30.28,7.0,Calm,Calm,-,N/A,,Overcast,0,2013-01-14 18:05:00
10:25 AM,5.0,-2.2,72,30.28,7.0,SSW,4.6,-,N/A,,Overcast,210,2013-01-14 18:25:00
10:45 AM,6.8,-2.2,67,30.27,8.0,SSW,6.9,-,N/A,,Overcast,200,2013-01-14 18:45:00
11:05 AM,6.8,-2.2,67,30.28,7.0,Calm,Calm,-,N/A,,Overcast,0,2013-01-14 19:05:00
11:25 AM,8.6,-2.2,62,30.28,8.0,Calm,Calm,-,N/A,,Overcast,0,2013-01-14 19:25:00
11:45 AM,8.6,-0.4,67,30.27,5.0,SW,6.9,-,N/A,,Overcast,220,2013-01-14 19:45:00
12:05 PM,8.6,-0.4,67,30.26,5.0,SW,5.8,-,N/A,,Overcast,230,2013-01-14 20:05:00
12:25 PM,8.6,-0.4,67,30.26,8.0,SW,4.6,-,N/A,,Overcast,220,2013-01-14 20:25:00
12:45 PM,8.6,-2.2,62,30.26,10.0,SW,4.6,-,N/A,,Mostly Cloudy,230,2013-01-14 20:45:00
1:05 PM,8.6,-2.2,62,30.26,10.0,SSW,4.6,-,N/A,,Scattered Clouds,210,2013-01-14 21:05:00
1:45 PM,10.4,-0.4,62,30.29,10.0,South,4.6,-,N/A,,Overcast,180,2013-01-14 21:45:00
2:05 PM,12.2,-0.4,57,30.29,10.0,SW,4.6,-,N/A,,Overcast,220,2013-01-14 22:05:00
2:25 PM,10.4,-0.4,62,30.29,10.0,SSW,5.8,-,N/A,,Overcast,200,2013-01-14 22:25:00
2:45 PM,10.4,-0.4,62,30.30,10.0,South,3.5,-,N/A,,Overcast,190,2013-01-14 22:45:00
3:00 PM,10.4,-0.4,62,30.30,10.0,Calm,Calm,-,N/A,,Overcast,0,2013-01-14 23:00:00
3:25 PM,10.4,-0.4,62,30.30,10.0,SW,4.6,-,N/A,,Overcast,220,2013-01-14 23:25:00
3:45 PM,10.4,-0.4,62,30.30,10.0,SSW,4.6,-,N/A,,Overcast,210,2013-01-14 23:45:00
4:05 PM,10.4,-0.4,62,30.30,10.0,Calm,Calm,-,N/A,,Overcast,0,2013-01-15 00:05:00
4:25 PM,8.6,-0.4,67,30.31,10.0,Calm,Calm,-,N/A,,Overcast,0,2013-01-15 00:25:00
4:45 PM,8.6,-0.4,67,30.31,10.0,Calm,Calm,-,N/A,,Overcast,0,2013-01-15 00:45:00
5:05 PM,6.8,-0.4,72,30.32,10.0,Calm,Calm,-,N/A,,Overcast,0,2013-01-15 01:05:00
5:25 PM,5.0,-0.4,78,30.33,10.0,Calm,Calm,-,N/A,,Overcast,0,2013-01-15 01:25:00
6:05 PM,1.4,-4.0,78,30.33,10.0,West,4.6,-,N/A,,Mostly Cloudy,270,2013-01-15 02:05:00
6:25 PM,1.4,-4.0,78,30.33,10.0,Calm,Calm,-,N/A,,Overcast,0,2013-01-15 02:25:00
6:45 PM,1.4,-4.0,78,30.34,10.0,Calm,Calm,-,N/A,,Mostly Cloudy,0,2013-01-15 02:45:00
7:05 PM,1.4,-4.0,78,30.35,7.0,Calm,Calm,-,N/A,,Overcast,0,2013-01-15 03:05:00
7:25 PM,1.4,-2.2,85,30.37,10.0,SSW,4.6,-,N/A,,Overcast,210,2013-01-15 03:25:00
7:45 PM,1.4,-2.2,85,30.36,10.0,SSW,3.5,-,N/A,,Overcast,200,2013-01-15 03:45:00
8:05 PM,-9999,-9999,N/A,30.34,10.0,SSW,4.6,-,N/A,,Overcast,200,2013-01-15 04:05:00
8:25 PM,1.4,-2.2,85,30.33,10.0,South,5.8,-,N/A,,Overcast,190,2013-01-15 04:25:00
8:45 PM,-0.4,-4.0,85,30.33,10.0,South,5.8,-,N/A,,Overcast,180,2013-01-15 04:45:00
9:05 PM,-2.2,-9.4,71,30.34,10.0,SSW,3.5,-,N/A,,Mostly Cloudy,210,2013-01-15 05:05:00
9:25 PM,-0.4,-5.8,78,30.34,10.0,South,5.8,-,N/A,,Mostly Cloudy,180,2013-01-15 05:25:00
10:05 PM,3.2,-0.4,85,30.34,10.0,SW,4.6,-,N/A,,Overcast,220,2013-01-15 06:05:00
10:25 PM,5.0,-0.4,78,30.35,10.0,Calm,Calm,-,N/A,,Overcast,0,2013-01-15 06:25:00
10:45 PM,6.8,1.4,79,30.36,10.0,Calm,Calm,-,N/A,,Overcast,0,2013-01-15 06:45:00
11:05 PM,6.8,1.4,79,30.36,10.0,Calm,Calm,-,N/A,,Overcast,0,2013-01-15 07:05:00
11:25 PM,8.6,1.4,73,30.36,10.0,Calm,Calm,-,N/A,,Overcast,0,2013-01-15 07:25:00